Flag for Canada Weather past 2 weeks in Niagara Falls, Ontario, Canada

Now
62 °F

Passing clouds.


Feels Like: 62 °F
Forecast: 57 / 76 °F
Wind: No wind

Location: Niagara Falls International Airport

Current Time: Jul 3, 2015 at 11:41:37 PM

Latest Report: Jul 3, 2015 at 10:53 PM


Visibility: 10 mi

Pressure: 29.93 "Hg

Humidity: 60%

Dew point: 48 °F

Location of Niagara FallsLocation

Historic Weather in Niagara Falls — Graph

°F

Niagara Falls temperature yesterday

Maximum temperature yesterday: 71 °F (at 3:53 PM)
Minimum temperature yesterday: 55 °F (at 5:53 AM)
Average temperature yesterday: 63 °F

Past Weeks' High & Low Weather Summary

 TemperatureHumidityPressure
High80 °F (Jun 22, 2:53 PM)97% (Jun 28, 5:53 AM)30.11 "Hg (Jun 28, 5:53 AM)
Low49 °F (Jul 3, 5:53 AM)33% (Jun 26, 4:53 PM)29.67 "Hg (Jun 28, 7:01 AM)
Average65 °F73%29.91 "Hg
* Reported Jun 18 9:53 PM — Jul 3 9:53 PM, Niagara Falls, Weather by CustomWeather, © 2015

Note: Actual official high and low records may vary slightly from our data, if they occured in-between our weather recording intervals... More about our weather records

Advertising

Niagara Falls weather history for previous 24 hours

 ConditionsComfort  
Time TempWeatherWind HumidityBarometerVisibility
9:53 PM
Fri, Jul 3
62 °FPartly sunny.6 mph60%29.92 "Hg10 mi
8:53 PM64 °FPartly sunny.7 mph56%29.92 "Hg10 mi
7:53 PM66 °FBroken clouds.8 mph54%29.93 "Hg10 mi
6:53 PM69 °FPartly sunny.10 mph49%29.94 "Hg10 mi
5:53 PM71 °FPartly sunny.10 mph47%29.95 "Hg10 mi
4:53 PM71 °FPartly sunny.12 mph49%29.95 "Hg10 mi
3:53 PM72 °FPartly sunny.12 mph53%29.96 "Hg10 mi
2:53 PM73 °FScattered clouds.5 mph37%29.97 "Hg10 mi
1:53 PM72 °FPassing clouds.7 mph41%29.97 "Hg10 mi
12:53 PM70 °FScattered clouds.7 mph42%29.99 "Hg10 mi
11:53 AM70 °FPassing clouds.3 mph44%30.00 "Hg10 mi
10:53 AM67 °FPassing clouds.3 mph47%30.02 "Hg10 mi
9:53 AM65 °FScattered clouds.No wind54%30.01 "Hg10 mi
8:53 AM62 °FScattered clouds.No wind56%30.01 "Hg10 mi
7:53 AM57 °FScattered clouds.No wind83%30.01 "Hg10 mi
6:53 AM51 °FSunny.No wind89%30.01 "Hg10 mi
5:53 AM49 °FClear.No wind90%30.01 "Hg10 mi
4:53 AM50 °FClear.No wind86%30.00 "Hg10 mi
3:53 AM50 °FClear.No wind86%29.99 "Hg10 mi
2:53 AM52 °FClear.No wind83%29.99 "Hg10 mi
1:53 AM53 °FClear.No wind83%29.99 "Hg10 mi
12:53 AM53 °FClear.No wind83%29.99 "Hg10 mi
11:53 PM
Thu, Jul 2
56 °FClear.No wind81%29.99 "Hg10 mi
Weather by CustomWeather, © 2015

See weather overviewHow to use our weather pages